Tracking 25744 objects as of 25-Jun-2022
HD Live streaming from Space Station
objects crossing your sky now

GONETS M 20

Track GONETS M 20 now!
10-day predictions


NORAD ID: 47227
Int'l Code: 2020-091A
Perigee: 1,484.4 km
Apogee: 1,518.7 km
Inclination: 82.5 °
Period: 115.9 minutes
Semi major axis: 7872 km
RCS: Unknown
Launch date: December 3, 2020
Source: Commonwealth of Independent States (former USSR) (CIS)
Launch site: PLESETSK MISSILE AND SPACE COMPLEX (PKMTR)
aabbcc
Your satellite tracking list
Your tracking list is empty




NASA's NSSDC Master Catalog

Two Line Element Set (TLE):
1 47227U 20091A   22175.70579122  .00000024  00000-0  10000-3 0  9994
2 47227  82.5028 125.8813 0021789 110.1732 250.1694 12.42875323 70640
Source of the keplerian elements: AFSPC